Regional Weather Roundup
Issued by NWS Wakefield, VA

Home | Current Version | Previous Version | Graphics & Text | Print | Product List | Glossary On
Versions: 1 2 3 4 5 6 7 8 9 10 11 12 13 14 15 16 17 18 19 20 21 22 23 24 25 26 27 28 29 30 31 32 33 34 35 36 37 38 39 40 41 42 43 44 45 46 47 48 49 50
000
ASUS41 KAKQ 061715
RWRAKQ

REGIONAL WEATHER ROUNDUP
NATIONAL WEATHER SERVICE WAKEFIELD VA
100 PM EDT FRI MAY 06 2016

Note: "fair" indicates few or no clouds below 12,000 feet with no
significant weather and/or obstructions to visibility. * = Denotes
station may not report precipitation (e.g., rain,snow,etc.),
thunder or fog.

VAZ042-051-052>054-056-061800-
NORTHERN VIRGINIA

CITY           SKY/WX    TMP DP  RH WIND       PRES   REMARKS
WASH NATIONAL  RAIN      51  48  89 E10       29.69S FOG
DULLES         RAIN      53  51  93 W10       29.67F FOG
FORT BELVOIR   LGT RAIN  54  50  87 VRB5      29.68S
QUANTICO       LGT RAIN  56  52  86 N8        29.69F
FREDERICKSBRG* RAIN      55  54  94 N10G17    29.68F
STAFFORD*      HVY RAIN  53  49  86 N6        29.73S
WARRENTON      RAIN      55  49  80 NW8       29.69F
CULPEPER*      LGT RAIN  55  53  93 NW6       29.71F
MANASSAS*      LGT RAIN  55  54  94 N8        29.69F
LEESBURG*      RAIN      54  54 100 N14G20    29.70S
WINCHESTER     RAIN      54  50  87 NW5       29.71F
FRONT ROYAL*   CLOUDY    54  50  87 CALM      29.70F
LURAY*         DRIZZLE   54  52  94 CALM      29.72F
$$

VAZ048-049-060>072-079>083-061800-
CENTRAL AND SOUTH CENTRAL VIRGINIA

CITY           SKY/WX    TMP DP  RH WIND       PRES   REMARKS
RICHMOND       LGT RAIN  53  51  93 SE5       29.69S
CHESTERFIELD*  PTSUNNY   57  43  58 N8        29.70F
PETERSBURG*    LGT RAIN  58  54  88 N7        29.70F
HANOVER        RAIN      54  50  86 VRB3      29.70F FOG
TAPPAHANNOCK*  LGT RAIN  52  51  96 CALM      29.69F
QUINTON*       CLOUDY    54  51  92 S3        29.68F
CHARLOTTSVILLE CLOUDY    57  50  77 VRB5      29.71F
GORDONSVILLE*  CLOUDY    55  52  89 N6        29.70F
ORANGE*        DRIZZLE   55  54  94 SW9       29.72F
LOUISA*        DRIZZLE   61  55  82 N8        29.69F
BUMPASS*       CLOUDY    55  53  94 N5        29.69F
FARMVILLE*     CLOUDY    60  53  79 NW5       29.71F
CREWE*         PTSUNNY   56  56 100 NW7       29.70F
FORT PICKETT*  NOT AVBL
CHASE CITY*    CLOUDY    58  52  81 N8        29.72F
CLARKSVILLE*   CLOUDY    59  50  72 NW9       29.73S
SOUTH HILL*    PTSUNNY   55  53  92 NW3       29.77S
LAWRENCEVILLE* CLOUDY    59  52  78 NW10G18   29.70F
EMPORIA*       CLOUDY    55  50  82 NW5       29.71F
$$

VAZ088>098-061800-
SOUTHEAST VIRGINIA

CITY           SKY/WX    TMP DP  RH WIND       PRES   REMARKS
NORFOLK        LGT RAIN  54  49  83 W7        29.69S
VIRGINIA BEACH LGT RAIN  57  48  72 W8        29.69S
NORFOLK NAVAL  LGT RAIN  54  50  86 W6        29.71S
WEST POINT*    CLOUDY    52  49  91 CALM      29.70F
SALUDA*        CLOUDY    51  49  93 N3        29.69S
NEWPORT NEWS   LGT RAIN  55  52  89 W5        29.70S
LANGLEY AFB    LGT RAIN  54  50  87 NW5       29.69S
FORT EUSTIS    LGT RAIN  54  54 100 VRB2      29.68S
WILLIAMSBURG*  FAIR      54  54 100 CALM      29.71S
HR EXEC AP*      N/A     54  52  94 W5        29.72S
FRANKLIN*      LGT RAIN  54  49  83 CALM      29.71F
US460-WAKEFLD  LGT RAIN  54  50  86 SW6       29.70F
$$

VAZ020-022-025-037-045-061800-
WEST CENTRAL AND SOUTHWEST VIRGINIA

CITY           SKY/WX    TMP DP  RH WIND       PRES   REMARKS
STAUNTON*      CLOUDY    58  49  71 N7        29.75S
WAYNESBORO*    CLOUDY    55  46  72 N10       29.73S
HOT SPRINGS VA CLOUDY    46  44  91 NW9       29.76S
LYNCHBURG      CLOUDY    59  47  64 NW8       29.74F
DANVILLE       CLOUDY    61  47  59 N13G18    29.75F
SOUTH BOSTON*  PTSUNNY   60  54  81 NW9       29.74F
MARTINSVILLE   CLOUDY    60  45  58 NW14      29.79F
ROANOKE        CLOUDY    59  43  55 NW10      29.78S
BLACKSBURG     CLOUDY    54  43  66 NW12      29.84S
DUBLIN*        CLOUDY    56  44  64 NW13G24   29.84S
MARION*        CLOUDY    54  41  62 NW8G22    29.89F
HILLSVILLE*    CLOUDY    52  42  69 NW24G31   29.80F
RICHLANDS*     CLOUDY    51  35  55 NW8G16    29.90F
WISE*          CLOUDY    52  37  58 NW5       29.95S
ABINGDON*      CLOUDY    55  44  65 NW7       29.91F
$$

MDZ021>025-VAZ099-100-061800-
SOUTHERN MARYLAND AND THE DELMARVA PENINSULA

CITY           SKY/WX    TMP DP  RH WIND       PRES   REMARKS
PATUXENT RIVER LGT RAIN  50  47  89 N9        29.67S FOG
BAY BRIDGE APT NOT AVBL
LEONARDTOWN    CLOUDY    50  46  87 CALM      29.69S
DOVER          DRIZZLE   52  52 100 VRB5      29.63F
GEORGETOWN     CLOUDY    52  48  86 N5        29.65S
EASTON         LGT RAIN N/A N/A N/A CALM      29.69F
CAMBRIDGE      CLOUDY    50  46  87 W3        29.65F
SALISBURY      LGT RAIN  51  49  92 SW3       29.66S FOG
OCEAN CITY     LGT RAIN  52  49  89 VRB6      29.66F
WALLOPS ISLAND LGT RAIN  52  50  93 S7        29.67F
ACCOMACK*      CLOUDY   N/A N/A N/A W5        29.67F
$$

NCZ012>017-030>032-061800-
NORTH CENTRAL AND EASTERN NORTH CAROLINA

CITY           SKY/WX    TMP DP  RH WIND       PRES   REMARKS
ROANOKE RAPIDS PTSUNNY   59  52  77 NW3       29.71F
RALEIGH        CLOUDY    62  48  60 N13G20    29.75S
ELIZABETH CITY LGT RAIN  57  50  77 W7        29.69F
AHOSKIE*       PTSUNNY   56  50  82 CALM      29.71F
EDENTON*       CLOUDY    57  57 100 NW3       29.71S
CURRITUCK*     RAIN      56  52  85 W5        29.71S
KILL DEVIL HLS CLOUDY    60  54  82 E9        29.68S
MANTEO         DRIZZLE   58  54  85 S5        29.69S
CAPE HATTERAS  PTSUNNY   59  50  72 SW9       29.71F
TARBORO*       PTSUNNY   60  51  70 CALM      29.72F
GOLDSBORO      CLOUDY    57  57 100 W7        29.72R
WASHINGTON     MOSUNNY   61  52  72 NW7       29.71S
GREENVILLE     PTSUNNY   61  52  72 W6        29.75S
NEW BERN       PTSUNNY   60  53  77 W7        29.73F
WILMINGTON     CLOUDY    60  47  61 W15       29.76S
$$

VAZ048-061800-
ELSEWHERE

CITY           SKY/WX    TMP DP  RH WIND       PRES   REMARKS
HARRISBURG PA  LGT RAIN  54  51  90 VRB7      29.67F
BALTIMORE      LGT RAIN  51  47  86 NW5       29.67F FOG
ANNAPOLIS      LGT RAIN  51  47  86 NW3       29.66F
ANDREWS AFB    LGT RAIN  50  48  93 NE5       29.67S
PHILADELPHIA   LGT RAIN  51  47  86 NE20      29.65F
HENDERSON NC     N/A    N/A N/A N/A MISG        N/A
GREENSBORO     PTSUNNY   64  46  52 N7        29.76S
ROCKY MOUNT    CLOUDY    60  52  74 NW10      29.72S
$$

VAZ100-061800-
MARINE

STATION/POSITION TIME  TEMP    WIND        PRES    WAVE   SWELL
                       AIR SEA DIR/SP/G            HT/PER HT/PER
                 (UTC) (F)     (DEG/KT/KT) (MB)    (FT/S) (FT/S)
BRANDYWINE LGT   1600   50      20/ 10/ 13 1003.5R
CAPE MAY NJ      1600   53 56  360/  8/ 12 1002.6R
LEWES DE         1600   51 54  340/  9/ 11 1003.7R
15NM E FENWICK I 1650   51 51              1003.8R   7/ 8
OCEAN-CITY-INLET 1600   50 54  280/  3/  4 1003.8R
WACHAPREAGUE VA  1600   50 56  220/  2/  5 1004.6S
THOMAS POINT MD  1700   50 57  350/  8/ 10 1005.8F
GOOSES REEF MD   1600   51 57   50/ 12/ 16 1005.8F   2/ 3
COVE POINT MD    1600   49      70/ 10/ 12 1005.2R
SOLOMONS ISLAND  1600   51 59  330/  7/  9   N/A
BISHOPS HEAD MD  1600   50 57  320/  5/  7 1004.1R
PINEY POINT MD   1600          330/  6/  8   N/A
POTOMAC MD       1600   50 58  300/  4/  6 1004.0R   1
CAMBRIDGE MD     1600   50 60  330/  3/  7 1003.8F
LEWISETTA VA     1600   51 60  280/  6/  7 1005.0R
RAPPAHANNOCK LGT 1600          260/  2/  3 1005.4F
STINGRAY PT      1600   51 61   50/  6/  6 1005.5R   1
YORK RVR RNG VA  1600   51     320/ 11/ 13 1004.8R
YORKTOWN VA      1600   52 62  340/  7/  9 1005.3R
JAMESTOWN VA     1600   53 66  240/  4/  8   N/A     0
DOMINION TERM VA 1600   53     290/  9/ 12 1005.5R
KIPTOPEKE VA     1612      59  240/  8/ 11   N/A
CHES BAY BRIDGE  1600   52 60  260/  9/ 12 1005.0R
CAPE HENRY VA    1600   53     250/  6/  9   N/A
CHESAPEAKE LGHT  1600   51     190/  3/  3 1006.3R
WILLOUBY STN VA  1600   53     280/ 11/ 12 1006.3R
CAPE HENRY BUOY  1612      56                N/A     4/ 8
CAPE CHARLES BUO 1626      56                N/A     4/ 8   3/ 8
OFFSHORE WE BUOY 1621      54                N/A     6/ 9   5/ 5
64NM E OF VA BCH 1650   52 53  210/  4/  6 1005.7R   6/ 8   5/ 8
DUCK PIER NC     1600   57 59   90/  5/  7 1005.1R
44100 DUCK FRF   1624      57                N/A     5/ 8   2/11
44056 DUCK FRF   1611      60                N/A     4/ 7   2/11
OREGON INLET NC  1600   59 59  150/  8/ 11 1005.3F
DIAMOND SHLS NC  1650   60 75  250/ 16/ 21 1006.2S   6/ 9   5/ 9
CAPE LOOKOUT NC  1600   58     250/ 12/ 15 1006.5R
$$



USA.gov is the U.S. government's official web portal to all federal, state and local government web resources and services.